Location: Devore Heights
(34.2372°N, 117.4156°W)
Time: 08:23:48
(UTC+00:00)

Courier 1B - All Passes

Search period start: 19 September 2024 00:00
Search period end: 29 September 2024 00:00
Orbit: 962 x 1208 km, 28.3° (Epoch: 18 September)

Date Brightness Start Highest point End Pass type
(mag) Time Alt. Az. Time Alt. Az. Time Alt. Az.
19 Sep - 01:05:29 10° W 01:12:08 34° SSW 01:19:01 10° SE daylight
19 Sep - 03:01:58 10° WSW 03:05:42 14° SSW 03:09:27 10° S visible
19 Sep - 18:32:06 10° SSW 18:37:05 22° SSE 18:42:16 10° ESE daylight
19 Sep - 20:24:03 10° WSW 20:30:31 45° SSE 20:37:23 10° E daylight
19 Sep - 22:17:27 10° WSW 22:24:22 55° S 22:31:43 10° ESE daylight
20 Sep - 00:11:28 10° W 00:18:16 40° SSW 00:25:22 10° SE daylight
20 Sep - 02:06:54 10° WSW 02:11:54 19° SSW 02:17:00 10° SSE visible
20 Sep - 17:39:30 10° S 17:43:28 17° SSE 17:47:32 10° ESE daylight
20 Sep - 19:30:36 10° SW 19:36:45 39° SSE 19:43:16 10° E daylight
20 Sep - 21:23:44 10° WSW 21:30:29 54° S 21:37:41 10° ESE daylight
20 Sep - 23:17:34 10° W 23:24:23 45° SSW 23:31:34 10° ESE daylight
21 Sep - 01:12:21 10° WSW 01:18:05 24° SSW 01:23:59 10° SSE daylight
21 Sep - 16:47:43 10° S 16:49:53 12° SSE 16:52:02 10° SE daylight
21 Sep - 18:37:17 10° SW 18:43:03 32° SSE 18:49:04 10° E daylight
21 Sep - 20:30:05 10° WSW 20:36:39 52° S 20:43:38 10° E daylight
21 Sep - 22:23:45 10° W 22:30:30 49° S 22:37:41 10° ESE daylight
22 Sep - 00:18:07 10° WSW 00:24:15 29° SSW 00:30:39 10° SE daylight
22 Sep - 02:16:49 10° SW 02:17:46 10° SSW 02:18:43 10° SSW visible
22 Sep - 17:44:08 10° SSW 17:49:23 26° SSE 17:54:50 10° ESE daylight
22 Sep - 19:36:30 10° WSW 19:42:51 48° S 19:49:35 10° E daylight
22 Sep - 21:30:00 10° W 21:36:39 52° S 21:43:45 10° ESE daylight
22 Sep - 23:24:05 10° W 23:30:26 34° SSW 23:37:07 10° SE daylight
23 Sep - 01:20:14 10° WSW 01:23:59 14° SSW 01:27:49 10° S daylight
23 Sep - 16:51:13 10° SSW 16:55:47 20° SSE 17:00:25 10° ESE daylight
23 Sep - 18:42:59 10° SW 18:49:07 42° SSE 18:55:32 10° E daylight
23 Sep - 20:36:18 10° WSW 20:42:50 53° S 20:49:47 10° ESE daylight
23 Sep - 22:30:11 10° W 22:36:37 40° SSW 22:43:26 10° SE daylight
24 Sep - 00:25:21 10° WSW 00:30:12 19° SSW 00:35:12 10° SSE daylight
24 Sep - 15:58:42 10° S 16:02:11 15° SSE 16:05:41 10° ESE daylight
24 Sep - 17:49:34 10° SW 17:55:25 36° SSE 18:01:29 10° E daylight
24 Sep - 19:42:38 10° WSW 19:49:02 53° S 19:55:48 10° ESE daylight
24 Sep - 21:36:22 10° W 21:42:48 44° SSW 21:49:39 10° ESE daylight
24 Sep - 23:30:58 10° WSW 23:36:26 24° SSW 23:42:07 10° SSE daylight
25 Sep - 15:07:30 10° SSE 15:08:36 10° SSE 15:09:40 10° SE daylight
25 Sep - 16:56:15 10° SW 17:01:46 30° SSE 17:07:23 10° ESE daylight
25 Sep - 18:49:00 10° WSW 18:55:16 50° S 19:01:50 10° E daylight
25 Sep - 20:42:36 10° W 20:49:00 48° S 20:55:47 10° ESE daylight
25 Sep - 22:36:51 10° WSW 22:42:40 29° SSW 22:48:45 10° SE daylight
26 Sep - 00:35:09 10° SW 00:36:07 10° SSW 00:37:06 10° SSW daylight
26 Sep - 16:03:06 10° SSW 16:08:08 24° SSE 16:13:13 10° ESE daylight
26 Sep - 17:55:25 10° WSW 18:01:33 46° S 18:07:52 10° E daylight
26 Sep - 19:48:53 10° WSW 19:55:14 51° S 20:01:54 10° ESE daylight
26 Sep - 21:42:53 10° W 21:48:54 34° SSW 21:55:14 10° SE daylight
26 Sep - 23:38:50 10° WSW 23:42:22 14° SSW 23:46:01 10° S daylight
27 Sep - 15:10:10 10° SSW 15:14:31 19° SSE 15:18:52 10° ESE daylight
27 Sep - 17:01:53 10° SW 17:07:51 40° SSE 17:13:55 10° E daylight
27 Sep - 18:55:11 10° WSW 19:01:28 52° S 19:08:01 10° ESE daylight
27 Sep - 20:49:02 10° W 20:55:08 39° SSW 21:01:35 10° SE daylight
27 Sep - 22:44:05 10° WSW 22:48:39 19° SSW 22:53:22 10° SSE daylight
28 Sep - 14:17:40 10° S 14:20:55 14° SSE 14:24:09 10° ESE daylight
28 Sep - 16:08:25 10° SW 16:14:11 34° SSE 16:19:58 10° E daylight
28 Sep - 18:01:31 10° WSW 18:07:44 51° S 18:14:08 10° ESE daylight
28 Sep - 19:55:14 10° W 20:01:24 44° S 20:07:51 10° ESE daylight
28 Sep - 21:49:47 10° WSW 21:54:56 23° SSW 22:00:18 10° SSE daylight
